Location: Marcé
(47.5801°N, 0.3280°W)
Time: 15:15:09
(UTC+01:00)

Vanguard 3 - Pass Details

Date: 06 December 2021
Orbit: 508 x 3260 km, 33.3° (Epoch: 20 January)

Event Time Altitude Azimuth Distance (km) Brightness Sun altitude
Rises 00:36:02 0° 172° (S) 6,388 - -64.7°
Reaches altitude 10° 00:44:59 10° 146° (SE) 5,902 - -64.9°
Maximum altitude 00:50:23 12° 128° (SE) 5,927 - -64.9°
Drops below altitude 10° 00:55:59 10° 111° (ESE) 6,191 - -64.9°
Exits shadow 00:57:59 - 106° (ESE) 6,336 11.6 -64.9°
Sets 01:05:57 0° 87° (E) 7,126 12.0 -64.8°
